Location: *
(53.6833°N, 10.8833°E)
Time: 20:19:43
(UTC+00:00)

Daily predictions for brighter satellites

Satellite Brightness Start Highest point End
(mag) Time Altitude Azimuth Time Altitude Azimuth Time Altitude Azimuth
Cosmos 773 Rocket 4.1 15:47:49 10° S 15:52:54 61° ESE 15:58:05 10° NNE
Cosmos 2233 Rocket 4.1 15:48:24 10° N 15:54:47 89° E 16:01:04 10° S
Cosmos 1500 Rocket 3.9 15:50:39 10° NNW 15:55:02 70° W 15:59:20 10° S
CZ-4B R/B 1.8 15:52:10 10° N 15:55:33 68° WNW 15:58:59 10° SSW
Okean-O 3.4 15:52:13 10° ESE 15:56:07 31° ENE 16:00:01 10° N
Cosmos 44 4.5 15:52:54 10° NW 15:56:23 22° NNE 15:59:48 10° ENE
Meteor 2-2 Rocket 4.5 15:50:54 10° S 15:56:29 51° E 16:01:59 10° NNE
Cosmos 1633 Rocket 3.8 15:52:59 10° N 15:56:58 32° ENE 16:00:57 10° SE
Genesis I 3.4 15:55:38 10° SW 15:59:39 78° NW 16:03:39 10° NE
Cosmos 2263 Rocket 3.0 15:54:46 10° NNW 15:59:39 30° NE 16:04:31 10° E
Sich 1 3.2 15:57:05 10° N 16:01:21 51° ENE 16:05:38 10° SSE
Feng Yun 1-1 Rocket 4.2 15:56:14 10° SE 16:01:40 61° ENE 16:07:01 10° NNW
ATLAS 5 CENTAUR R/B 3.8 15:58:13 10° WNW 16:03:33 43° SW 16:09:37 10° SSE
NOSS 3-2 (C) 4.4 16:00:53 10° WNW 16:07:11 40° N 16:14:17 10° ENE
USA 215 3.4 16:02:06 10° ENE 16:08:36 68° N 16:15:05 10° W
Cosmos 1666 Rocket 3.7 16:08:55 10° N 16:13:12 50° ENE 16:17:25 10° SSE
H-2A R/B 2.8 16:10:35 10° SSE 16:14:17 52° ENE 16:17:59 10° N
Okean O Rocket 2.7 16:10:42 10° S 16:14:57 49° W 16:19:13 10° NNW
ASTEX 1 3.5 16:10:46 10° N 16:15:49 83° W 16:20:48 10° S
Cosmos 2369 4.3 16:10:48 10° S 16:15:58 37° ESE 16:21:11 10° NE
Cosmos 1624 Rocket 4.3 16:11:36 10° NNW 16:16:47 48° NE 16:21:57 10° SE
NOSS 8 (A) 4.1 16:14:09 10° SW 16:17:13 89° ESE 16:19:55 13° NE
Cosmos 1869 3.3 16:13:38 10° S 16:17:31 58° E 16:21:24 10° NNE
Cosmos 2082 3.9 16:11:59 10° NW 16:17:38 76° WSW 16:23:14 10° SSE
COSMO-SKYMED 1 4.1 16:15:11 11° NE 16:17:42 16° E 16:20:24 10° SE
Cosmos 2056 Rocket 3.7 16:13:07 10° NNW 16:18:04 46° NE 16:23:04 10° SE
Cosmos 2344 3.8 16:11:02 10° SW 16:18:34 79° NW 16:27:30 10° NE
Cosmos 2221 2.8 16:14:58 10° SSW 16:19:18 71° WNW 16:23:42 10° N
Cosmos 1697 Rocket 3.3 16:14:44 10° S 16:19:53 37° ESE 16:25:02 10° NE
USA 229 DEB 3.7 16:13:27 10° SSW 16:20:00 69° SE 16:26:44 11° NE
USA 229 3.7 16:13:34 10° SSW 16:20:07 69° SE 16:26:49 11° NE
NOSS 3-1 (C) 3.5 16:17:08 10° SSW 16:22:43 65° SE 16:28:56 12° NE
ERBS 2.8 16:19:44 10° SW 16:22:57 46° SE 16:25:19 16° ENE
Cosmos 1891 Rocket 4.5 16:18:02 10° N 16:24:23 67° ENE 16:30:34 10° SSE
BREEZE-M DEB (TANK) 3.8 16:14:44 10° WSW 16:24:55 54° S 16:27:59 12° ESE
NOSS 3-1 (A) 3.7 16:19:57 10° SSW 16:25:21 48° SE 16:30:58 13° NE
Cosmos 1464 Rocket 3.9 16:19:13 10° N 16:25:23 67° ENE 16:31:28 10° SSE
YAOGAN 6 3.5 16:23:12 10° ESE 16:26:04 24° ENE 16:28:59 10° N
ALOS 4.0 16:22:59 10° SSW 16:27:18 37° W 16:31:39 10° NNW
SeaSat 1 2.6 16:22:34 10° SE 16:27:21 53° NE 16:32:10 10° NNW
Cosmos 1656 3.6 16:23:25 10° SSW 16:28:54 66° ESE 16:34:20 10° NE
IRS-1C Rocket 4.2 16:23:46 10° SSE 16:29:04 82° WSW 16:34:24 10° NNW
Cosmos 1538 Rocket 4.0 16:24:28 10° SSW 16:29:46 87° ESE 16:35:11 10° NNE
SMAP 3.1 16:26:36 10° SSE 16:31:15 89° ENE 16:35:57 10° NNW
Cosmos 1867 4.1 16:28:01 10° WSW 16:33:24 55° NW 16:38:27 12° NE
H-2A R/B 4.0 16:33:42 11° NE 16:33:42 11° NE 16:35:04 10° NNE
FengYun 1-2 T 4.5 16:28:21 10° SE 16:33:33 46° ENE 16:38:46 10° N
Cosmos 2278 4.3 16:28:24 10° S 16:33:36 38° ESE 16:38:14 13° NE
Cosmos 1072 Rocket 4.4 16:30:48 10° N 16:36:59 84° E 16:43:12 10° SSE
Meteor 2-11 Rocket 4.4 16:32:19 10° N 16:38:25 62° ENE 16:44:29 10° SSE
AQUARIUS 4.3 16:36:27 10° SSE 16:40:57 82° WSW 16:45:29 10° NNW
Cosmos 1844 Rocket 4.0 16:36:56 10° NNW 16:41:08 21° NNE 16:43:16 17° ENE
Cosmos 1470 Rocket 3.7 16:40:13 10° N 16:44:37 50° ENE 16:48:58 10° SSE
CENTAUR R/B 3.5 16:38:08 10° WNW 16:45:02 43° NNE 16:50:43 18° ENE
YAOGAN 1 3.2 16:42:02 10° SE 16:45:57 34° ENE 16:49:52 10° N
Cosmos 2278 Rocket 4.0 16:44:39 10° NNW 16:47:45 15° N 16:50:01 12° NE
Envisat 2.9 16:42:52 10° SSE 16:47:54 68° ENE 16:52:58 10° N
Cosmos 2227 4.2 16:44:24 10° NNW 16:50:11 66° NE 16:55:54 10° SE
Cosmos 1356 Rocket 3.6 16:47:41 10° SSW 16:51:54 78° WNW 16:56:13 10° NNE
COBE Rocket 3.8 16:50:18 10° NNE 16:55:04 62° E 16:59:42 10° S
PSLV R/B 4.4 16:52:34 10° N 16:56:47 64° WNW 17:00:56 10° SSW
Cosmos 1420 Rocket 4.2 16:53:17 10° NNW 16:58:21 48° NE 17:03:21 10° SE
CSL-04 Debris 4.3 16:54:13 10° SE 16:59:31 52° ENE 17:04:51 10° N
Cosmos 158 Rocket 4.5 16:57:22 10° S 17:02:11 38° ESE 17:04:39 24° NE
NOSS 2-3 (C) 4.0 16:59:51 10° SSW 17:04:13 55° SE 17:06:55 26° ENE
CZ-4 R/B 1.4 17:00:18 10° SSE 17:04:19 57° ENE 17:08:17 10° N
SKYMED 2 4.0 17:03:53 22° NE 17:06:17 40° E 17:10:24 10° SSE
Cosmos 1452 Rocket 3.8 17:01:25 10° NNW 17:06:33 46° NE 17:10:09 19° ESE
Cosmos 1939 Rocket 3.6 17:07:58 32° ENE 17:07:59 32° ENE 17:11:40 10° N
ATLAS 3B R/B 3.3 17:01:54 10° NW 17:08:06 39° NNE 17:11:21 25° ENE
Cosmos 1371 Rocket 4.2 17:03:44 10° NNW 17:08:56 71° WSW 17:14:04 10° SSE
USA 238 DEB 3.9 17:02:22 10° NW 17:09:21 59° NNE 17:14:03 23° ESE
Geosat 4.4 17:07:11 26° ENE 17:09:24 40° ESE 17:14:08 10° S
USA 238 3.9 17:02:28 10° NW 17:09:27 59° NNE 17:14:08 23° ESE
CSL-04 Rocket 3.6 17:05:10 10° SE 17:10:24 60° ENE 17:15:37 10° N
Cosmos 1606 4.4 17:09:18 10° SSE 17:10:39 19° SE 17:10:39 19° SE
NOSS 3-2 (A) 4.0 17:05:47 10° NW 17:12:44 58° NNE 17:17:43 24° ESE
Lacrosse 4 Rocket 1.4 17:08:57 10° SW 17:13:01 76° NW 17:15:07 27° NNE
Cosmos 1633 4.4 17:11:08 10° NNW 17:14:28 34° W 17:17:46 10° SSW
Cosmos 2369 Rocket 4.3 17:11:41 10° NW 17:14:55 15° NNW 17:18:08 10° NNE
Cosmos 1862 4.4 17:11:07 10° NNW 17:14:56 46° W 17:18:46 10° SSW
Meteor 1-20 Rocket 4.3 17:12:22 10° N 17:18:11 59° ENE 17:23:53 10° SSE
Cosmos 1933 3.6 17:15:07 10° SSE 17:18:58 43° E 17:19:00 43° E
Meteor 1-25 Rocket 4.2 17:15:26 10° N 17:21:04 61° ENE 17:26:45 10° SSE
CZ-4 R/B 4.4 17:20:51 10° SSE 17:25:00 85° WSW 17:29:12 10° NNW
Cosmos 2034 Rocket 4.4 17:19:19 10° NNW 17:25:39 69° W 17:31:59 10° S
Cosmos 1980 Rocket 2.2 17:20:37 10° SSW 17:26:12 62° ESE 17:29:07 29° NE
GEOS 3 Rocket 3.9 17:25:08 36° E 17:26:47 47° SE 17:31:51 10° SSW
Cosmos 1943 Rocket 4.3 17:23:48 10° NW 17:26:51 14° N 17:29:44 10° NNE
Cosmos 2112 Rocket 3.9 17:21:44 10° SSW 17:26:57 82° ESE 17:30:27 22° NNE
SL-16 R/B 3.6 17:22:34 10° SSE 17:25:11 21° SE 17:25:11 21° SE
Ariane Rocket 3.2 17:29:42 38° ESE 17:30:55 46° ENE 17:35:46 10° N
BREEZE-M DEB (TANK) 4.0 17:27:54 10° SW 17:31:11 19° S 17:31:39 18° SSE
APEX 3.5 17:28:14 10° SSW 17:30:28 39° S 17:30:28 39° S
CZ-2D R/B 3.8 17:33:07 43° NNE 17:33:07 43° NNE 17:36:01 10° N
Cosmos 1680 Rocket 3.5 17:27:12 10° SSW 17:32:26 82° WNW 17:36:11 20° NNE
Okean-O 4.0 17:28:18 10° S 17:32:30 41° W 17:36:44 10° NNW
Cosmos 2322 Rocket 3.9 17:29:12 10° SSE 17:30:44 16° SE 17:30:44 16° SE
Timation 1 Rocket 4.3 17:30:24 10° NW 17:36:26 89° WSW 17:41:45 14° SSE
Cosmos 44 3.1 17:34:10 10° NW 17:38:30 52° NE 17:38:31 52° NE
Cosmos 1151 Rocket 3.2 17:35:49 10° SSW 17:40:11 73° WNW 17:44:09 13° N
Cosmos 1634 Rocket 3.8 17:35:51 10° N 17:42:06 79° E 17:48:15 10° SSE
Cosmos 2263 Rocket 2.2 17:38:35 10° NW 17:44:10 77° WSW 17:49:12 13° SSE
USA 215 3.2 17:48:57 41° E 17:51:27 80° NNE 17:58:01 10° WNW
Cosmos 1933 Rocket 4.2 17:47:51 10° NNW 17:52:07 54° W 17:56:21 10° S
Cosmos 2142 Rocket 4.4 17:45:57 10° N 17:52:23 74° ENE 17:58:44 10° SSE
Cosmos 2228 Rocket 3.0 17:48:35 10° S 17:52:41 68° SE 17:52:41 68° SE
Cosmos 1328 Rocket 4.3 17:48:49 10° SSW 17:53:08 52° WNW 17:57:15 11° N
COSMO-SKYMED 1 2.6 17:52:24 32° N 17:54:24 76° WNW 17:58:45 10° SSW
BREEZE-M DEB (TANK) 4.4 17:53:41 10° WSW 17:55:05 19° SW 17:55:05 19° SW
Meteor 1-14 Rocket 4.2 17:51:02 10° NNW 17:57:05 80° ENE 18:03:05 10° SSE
Cosmos 1515 Rocket 3.7 17:54:19 10° SSW 17:58:41 70° WNW 18:00:30 34° N
IRS-1A Rocket 4.2 17:57:14 43° SE 17:59:05 69° ENE 18:04:54 10° NNW
Cosmos 2279 Rocket 3.9 17:52:56 10° N 17:59:10 68° ENE 18:02:41 27° SSE
Tsikada Rocket 4.1 17:52:47 10° SSW 17:59:12 79° WNW 18:05:41 10° N
ERBS 3.6 17:56:00 10° W 17:58:20 38° WNW 17:58:20 38° WNW
NOSS 3-2 (C) 3.9 17:52:13 10° NW 17:59:18 66° NE 18:01:44 46° E
YAOGAN 6 4.3 17:56:19 10° SSW 17:59:30 32° W 18:02:42 10° NNW
Cosmos 2369 4.4 17:54:28 10° SW 18:00:01 52° NW 18:03:23 24° NNE
Cosmos 371 Rocket 4.4 17:56:26 10° NNW 17:59:27 32° N 17:59:27 32° N
USA 116 4.2 18:01:22 52° NNE 18:02:34 87° ESE 18:07:44 10° SSW
Cosmos 1697 Rocket 3.4 17:58:13 10° SW 18:03:44 52° NW 18:06:50 25° NNE
SeaSat 1 4.0 18:00:34 10° S 18:05:03 34° WSW 18:09:34 10° NW
NOSS 2-3 (E) 4.1 18:02:39 10° WSW 18:07:15 68° NW 18:08:10 56° NNE
USA 229 DEB 4.3 18:04:48 10° W 18:11:20 50° NNW 18:14:10 33° NNE
USA 229 4.3 18:04:53 10° W 18:11:25 51° NNW 18:14:15 33° NNE
H-2A R/B 3.5 18:14:20 26° N 18:14:20 26° N 18:16:46 10° N
NOSS 3-1 (C) 4.2 18:08:06 10° W 18:13:54 49° NNW 18:16:19 35° NNE
NOSS 3-1 (A) 3.9 18:10:22 10° WSW 18:16:12 58° NNW 18:18:25 40° NNE
NOSS 2-3 (D) 4.2 18:12:25 10° WSW 18:17:01 63° NW 18:17:31 60° N
Cosmos 2278 4.4 18:12:05 10° SW 18:17:38 52° NW 18:20:09 31° N
YAOGAN 1 4.1 18:18:04 10° SSW 18:22:02 35° W 18:26:03 10° NNW
Cosmos 1844 Rocket 3.1 18:20:36 10° NNW 18:24:57 50° N 18:24:57 50° N
Cosmos 2180 Rocket 4.3 18:23:35 10° N 18:29:47 87° E 18:30:12 79° SSE
MOS 1 4.2 18:31:24 77° NNW 18:31:24 77° NNW 18:36:41 10° NNW
Cosmos 2278 Rocket 3.8 18:28:54 10° NNW 18:31:52 24° N 18:31:52 24° N
Cosmos 2344 4.4 18:26:47 10° WNW 18:34:23 47° N 18:37:32 36° NE
CENTAUR R/B 3.0 18:29:10 10° NW 18:36:52 75° NE 18:37:55 67° E
CZ-4 R/B 4.1 18:36:44 10° SW 18:39:40 19° W 18:42:35 10° NW
Lacrosse 4 Rocket 3.8 18:49:20 10° WNW 18:51:27 18° NW 18:51:27 18° NW
ATLAS 3B R/B 2.8 18:52:59 10° NW 18:58:36 63° NNW 18:58:36 63° NNW
USA 238 DEB 4.2 18:53:30 10° NW 19:00:27 56° SW 19:01:32 52° SSW
USA 238 4.2 18:53:36 10° NW 19:00:33 57° SW 19:01:36 52° SSW
Cosmos 2369 Rocket 4.5 18:58:24 10° NNW 19:00:14 14° N 19:00:14 14° N
NOSS 3-2 (A) 4.3 18:56:43 10° NW 19:03:56 61° SW 19:05:08 55° SSW
Ariane Rocket 4.5 19:09:55 33° W 19:10:01 33° W 19:14:39 10° NNW
SL-16 R/B 3.9 19:04:54 10° SW 19:07:07 25° SW 19:07:07 25° SW
Cosmos 1980 Rocket 3.5 19:05:23 10° WSW 19:10:35 35° NW 19:10:55 35° NW
Cosmos 1943 Rocket 4.5 19:09:35 10° NNW 19:11:15 14° N 19:11:15 14° N
Cosmos 2322 Rocket 4.3 19:11:24 10° SW 19:12:37 17° SW 19:12:37 17° SW
USA 215 4.0 19:36:18 45° W 19:36:18 45° W 19:41:10 10° WNW
CENTAUR R/B 4.2 20:20:05 10° NW 20:25:06 36° W 20:25:06 36° W
